Fairbanks, AK

9:09 AM AKDT on September 17, 2014 (GMT -0800)
AKDOT 14th Avenue @ Eielson Street | Change Station
CLOSE
Current Station
Personal Weather Station
Location: Fairbanks, AK
Elevation: 482 ft
Nearby Weather Stations

Elev 482 ft 64.84 °N, 147.71 °W | Updated 47 minutes ago

Mostly Cloudy
Mostly Cloudy
39 °F
Feels Like 39 °F
N
0
Wind Variable Wind from SW
Gusts 0.0 mph

Today
High -- | Low -- °F
--% Chance of Precip.
Yesterday
High -- | Low -- °F
Precip. -- in
7:19 AM 8:09 PM
Waning Crescent, 34% visible
Pressure 29.46 in
Visibility 13.0 miles
Clouds Few 7000 ft
Mostly Cloudy 15000 ft
Mostly Cloudy 20000 ft
Windchill 39 °F
Dew Point 35 °F
Humidity 85%
Rainfall -999.00 in
Snow Depth 1 in , 5 in , 0 in
UV 0 out of 12
Pollen Not available.
Air Quality Not available.
Flu Activity Not available.
METAR PAFB 171655Z 08009KT 13SM FEW070 BKN150 BKN200 04/01 A2944 RMK SLP975

More Conditions Fewer Conditions

Pressure 29.46 in
Visibility 13.0 miles
Clouds Few 7000 ft
Mostly Cloudy 15000 ft
Mostly Cloudy 20000 ft
Windchill 39 °F
Dew Point 35 °F
Humidity 85%
Rainfall -999.00 in
Snow Depth 1 in , 5 in , 0 in
UV 0 out of 12
Pollen Not available.
Air Quality Not available.
Flu Activity Not available.
METAR PAFB 171655Z 08009KT 13SM FEW070 BKN150 BKN200 04/01 A2944 RMK SLP975

More Conditions Fewer Conditions

10-Day Weather Forecast

Almanac

Astronomy

Sep. 17, 2014 Rise Set
Actual Time 7:19 AM AKDT 8:09 PM AKDT
Civil Twilight 6:29 AM AKDT 8:59 PM AKDT
Nautical Twilight 5:26 AM AKDT 10:01 PM AKDT
Astronomical Twilight 4:09 AM AKDT 11:16 PM AKDT
Moon No Moon Rise 5:58 PM AKDT
Length of Visible Light 14h 29m
Length of Day
12h 49m
Tomorrow will be 6m 38s shorter.
Waning Crescent, 34% of the Moon is Illuminated
Today
Waning Crescent
Sep 24
New
Oct 1
First Quarter
Oct 8
Full
Oct 15
Last Quarter

Today's Extremes

State Highs State Lows

Community

WunderPhotos

Upload Photos

1,754,106 photos uploaded!

Nearby

Snow Depth

Station Depth Elevation
Munson Ridge 1 in 3100 ft
MF Bradley River 5 in 2300 ft
Upper Tsaina River 0 in 1750 ft
Coldfoot 0 in 1040 ft
Point Mackenzie 1 in 200 ft

Earthquake Activity

City Distance Mag. Time & Date
No recent earthquake activity has been reported nearby.
Minimum magnitude displayed is 2.5.

Coastal Water Temperatures

Place Temperature
No Stations Reporting

Nearby Weather Stations